Home   Weather   Columbus Park   Past weeks
Flag for USA

Past Weather in Columbus Park, Iowa, USA — Yesterday and Last 2 Weeks

Now
61 °F

More clouds than sun.


Feels Like: 61 °F
Forecast: 55 / 46 °F
Wind: 12 mph from Southeast

Location: Des Moines International Airport

Current Time: Oct 20, 2019 at 7:20:23 pm

Latest Report: Oct 20, 2019 at 5:54 pm


Visibility: 10 mi

Pressure: 29.74 "Hg

Humidity: 38%

Dew Point: 35 °F

Location of Columbus ParkLocation

Past Weather in Columbus Park — Graph

°F

Columbus Park Temperature Yesterday

Maximum temperature yesterday: 64 °F (at 3:54 pm)
Minimum temperature yesterday: 48 °F (at 10:54 pm)
Average temperature yesterday: 54 °F

High & Low Weather Summary for the Past Weeks

 TemperatureHumidityPressure
High72 °F (Oct 18, 2:54 pm)97% (Oct 10, 8:54 am)30.26 "Hg (Oct 10, 8:54 am)
Low30 °F (Oct 12, 2:54 am)28% (Oct 7, 3:54 pm)29.61 "Hg (Oct 18, 4:54 pm)
Average51 °F69%29.96 "Hg
* Reported Oct 5 5:54 pm — Oct 20 5:54 pm, Columbus Park. Weather by CustomWeather, © 2019

Note: Actual official high and low records may vary slightly from our data, if they occured in-between our weather recording intervals... More about our weather records

Advertising

Columbus Park Weather History for the Previous 24 Hours

Scroll right to see more
 ConditionsComfort  
Time TempWeatherWind HumidityBarometerVisibility
5:54 pm
Sun, Oct 20
61 °FMore clouds than sun.12 mph38%29.74 "Hg10 mi
4:54 pm62 °FMostly cloudy.15 mph35%29.75 "Hg10 mi
3:54 pm64 °FMore clouds than sun.22 mph35%29.77 "Hg10 mi
2:54 pm64 °FPartly sunny.21 mph41%29.77 "Hg10 mi
1:54 pm64 °FScattered clouds.17 mph41%29.80 "Hg10 mi
12:54 pm62 °FBroken clouds.16 mph50%29.83 "Hg10 mi
11:54 am60 °FBroken clouds.14 mph60%29.85 "Hg10 mi
10:54 am56 °FBroken clouds.7 mph77%29.87 "Hg10 mi
9:54 am51 °FBroken clouds.6 mph86%29.85 "Hg10 mi
8:54 am46 °FScattered clouds.No wind89%29.85 "Hg10 mi
7:54 am44 °FBroken clouds.6 mph89%29.84 "Hg10 mi
6:54 am43 °FPassing clouds.5 mph89%29.84 "Hg10 mi
5:54 am44 °FClear.No wind89%29.83 "Hg10 mi
4:54 am45 °FClear.No wind86%29.81 "Hg10 mi
3:54 am43 °FClear.3 mph89%29.80 "Hg10 mi
2:54 am47 °FClear.No wind83%29.81 "Hg10 mi
1:54 am45 °FClear.3 mph86%29.80 "Hg10 mi
12:54 am48 °FClear.No wind83%29.80 "Hg10 mi
11:54 pm
Sat, Oct 19
48 °FClear.5 mph83%29.81 "Hg10 mi
10:54 pm48 °FClear.6 mph83%29.81 "Hg10 mi
9:54 pm50 °FClear.8 mph83%29.80 "Hg10 mi
8:54 pm51 °FClear.8 mph80%29.79 "Hg10 mi
7:54 pm53 °FClear.8 mph77%29.78 "Hg10 mi
Weather by CustomWeather, © 2019

See weather overview